| time (UTC) | temp C | wind direction | speed KPH | gust KPH | rain 1hr cm | rain 24hr cm | rain mn cm | humidity % | barometer mb |
| 20260507192015 | 32 | 248 | 8.0 | 24.1 | 0.00 | 0.00 | 0.00 | 35 | 1041.8 |
| 20260507191515 | 32 | 293 | 11.3 | 22.5 | 0.00 | 0.00 | 0.00 | 38 | 1041.9 |
| 20260507191015 | 32 | 317 | 4.8 | 19.3 | 0.00 | 0.00 | 0.00 | 38 | 1041.9 |
| 20260507190518 | 32 | 299 | 11.3 | 22.5 | 0.00 | 0.00 | 0.00 | 34 | 1041.9 |
| 20260507190016 | 32 | 343 | 12.9 | 22.5 | 0.00 | 0.00 | 0.00 | 31 | 1042.1 |
| 20260507185513 | 32 | 297 | 4.8 | 20.9 | 0.00 | 0.00 | 0.00 | 34 | 1042.1 |
| 20260507185013 | 32 | 249 | 8.0 | 24.1 | 0.00 | 0.00 | 0.00 | 34 | 1042.0 |
| 20260507184513 | 32 | 304 | 9.7 | 24.1 | 0.00 | 0.00 | 0.00 | 37 | 1042.0 |
| 20260507184012 | 32 | 240 | 8.0 | 22.5 | 0.00 | 0.00 | 0.00 | 36 | 1042.1 |
| 20260507183513 | 32 | 267 | 6.4 | 24.1 | 0.00 | 0.00 | 0.00 | 38 | 1042.3 |
| 20260507183012 | 32 | 232 | 6.4 | 24.1 | 0.00 | 0.00 | 0.00 | 38 | 1042.4 |
| 20260507182511 | 31 | 257 | 12.9 | 22.5 | 0.00 | 0.00 | 0.00 | 41 | 1042.4 |
| 20260507182011 | 31 | 293 | 11.3 | 20.9 | 0.00 | 0.00 | 0.00 | 39 | 1042.4 |
| 20260507181515 | 32 | 227 | 9.7 | 22.5 | 0.00 | 0.00 | 0.00 | 39 | 1042.5 |
| 20260507181014 | 32 | 304 | 11.3 | 22.5 | 0.00 | 0.00 | 0.00 | 39 | 1042.5 |
| 20260507180511 | 32 | 213 | 9.7 | 24.1 | 0.00 | 0.00 | 0.00 | 39 | 1042.7 |
| 20260507180013 | 33 | 260 | 8.0 | 24.1 | 0.00 | 0.00 | 0.00 | 36 | 1042.6 |
| 20260507175516 | 32 | 349 | 9.7 | 25.7 | 0.00 | 0.00 | 0.00 | 39 | 1042.8 |
| 20260507175011 | 32 | 252 | 6.4 | 25.7 | 0.00 | 0.00 | 0.00 | 40 | 1042.8 |
| 20260507174519 | 32 | 254 | 8.0 | 27.4 | 0.00 | 0.00 | 0.00 | 39 | 1042.9 |
| 20260507174017 | 32 | 264 | 11.3 | 22.5 | 0.00 | 0.00 | 0.00 | 37 | 1042.9 |
| 20260507173512 | 32 | 80 | 6.4 | 33.8 | 0.00 | 0.00 | 0.00 | 36 | 1042.8 |
| 20260507173016 | 32 | 219 | 9.7 | 33.8 | 0.00 | 0.00 | 0.00 | 37 | 1042.8 |
| 20260507172510 | 33 | 296 | 9.7 | 20.9 | 0.00 | 0.00 | 0.00 | 40 | 1042.7 |
| 20260507172012 | 33 | 275 | 9.7 | 20.9 | 0.00 | 0.00 | 0.00 | 35 | 1042.6 |
| 20260507171508 | 33 | 320 | 12.9 | 19.3 | 0.00 | 0.00 | 0.00 | 38 | 1042.7 |
| 20260507171008 | 33 | 321 | 4.8 | 27.4 | 0.00 | 0.00 | 0.00 | 41 | 1042.5 |
| 20260507170509 | 33 | 311 | 9.7 | 27.4 | 0.00 | 0.00 | 0.00 | 40 | 1042.4 |
| 20260507170006 | 33 | 207 | 8.0 | 17.7 | 0.00 | 0.00 | 0.00 | 40 | 1042.4 |
| 20260507165510 | 33 | 228 | 4.8 | 17.7 | 0.00 | 0.00 | 0.00 | 40 | 1042.4 |
| 20260507165104 | 33 | 251 | 6.4 | 17.7 | 0.00 | 0.00 | 0.00 | 39 | 1042.4 |
| 20260507164505 | 33 | 277 | 8.0 | 25.7 | 0.00 | 0.00 | 0.00 | 39 | 1042.4 |
| 20260507164002 | 33 | 302 | 14.5 | 25.7 | 0.00 | 0.00 | 0.00 | 38 | 1042.2 |
| 20260507163559 | 33 | 133 | 4.8 | 20.9 | 0.00 | 0.00 | 0.00 | 39 | 1042.2 |
| 20260507163100 | 32 | 297 | 4.8 | 25.7 | 0.00 | 0.00 | 0.00 | 42 | 1042.3 |
| 20260507162559 | 32 | 236 | 6.4 | 25.7 | 0.00 | 0.00 | 0.00 | 40 | 1042.3 |
| 20260507162101 | 32 | 299 | 9.7 | 25.7 | 0.00 | 0.00 | 0.00 | 39 | 1042.3 |
| 20260507161559 | 32 | 221 | 11.3 | 27.4 | 0.00 | 0.00 | 0.00 | 42 | 1042.4 |
| 20260507161059 | 32 | 258 | 8.0 | 27.4 | 0.00 | 0.00 | 0.00 | 43 | 1042.4 |
| 20260507160555 | 32 | 285 | 4.8 | 24.1 | 0.00 | 0.00 | 0.00 | 42 | 1042.3 |
| 20260507160114 | 32 | 259 | 8.0 | 24.1 | 0.00 | 0.00 | 0.00 | 45 | 1042.4 |
| 20260507155556 | 32 | 296 | 9.7 | 17.7 | 0.00 | 0.00 | 0.00 | 46 | 1042.4 |
| 20260507155055 | 31 | 312 | 8.0 | 25.7 | 0.00 | 0.00 | 0.00 | 47 | 1042.4 |
| 20260507154550 | 32 | 236 | 6.4 | 25.7 | 0.00 | 0.00 | 0.00 | 47 | 1042.5 |
| 20260507154050 | 31 | 214 | 8.0 | 19.3 | 0.00 | 0.00 | 0.00 | 48 | 1042.5 |
| 20260507153553 | 31 | 142 | 6.4 | 17.7 | 0.00 | 0.00 | 0.00 | 47 | 1042.6 |
| 20260507153048 | 31 | 211 | 9.7 | 17.7 | 0.00 | 0.00 | 0.00 | 48 | 1042.6 |
| 20260507152555 | 31 | 196 | 4.8 | 17.7 | 0.00 | 0.00 | 0.00 | 48 | 1042.6 |
| 20260507152048 | 31 | 152 | 3.2 | 12.9 | 0.00 | 0.00 | 0.00 | 50 | 1042.5 |
| 20260507151545 | 31 | 259 | 6.4 | 16.1 | 0.00 | 0.00 | 0.00 | 48 | 1042.5 |
| 20260507151043 | 31 | 248 | 1.6 | 16.1 | 0.00 | 0.00 | 0.00 | 47 | 1042.5 |
| 20260507150542 | 31 | 215 | 3.2 | 11.3 | 0.00 | 0.00 | 0.00 | 45 | 1042.6 |
| 20260507150041 | 31 | 223 | 1.6 | 14.5 | 0.00 | 0.00 | 0.00 | 49 | 1042.5 |
| 20260507145542 | 30 | 212 | 3.2 | 14.5 | 0.00 | 0.00 | 0.00 | 51 | 1042.6 |
| 20260507145037 | 30 | 277 | 4.8 | 14.5 | 0.00 | 0.00 | 0.00 | 46 | 1042.7 |
| 20260507144536 | 30 | 265 | 3.2 | 12.9 | 0.00 | 0.00 | 0.00 | 49 | 1042.6 |
| 20260507144036 | 30 | 196 | 3.2 | 11.3 | 0.00 | 0.00 | 0.00 | 47 | 1042.6 |
| 20260507143533 | 30 | 275 | 1.6 | 9.7 | 0.00 | 0.00 | 0.00 | 45 | 1042.6 |
| 20260507143032 | 30 | 147 | 4.8 | 9.7 | 0.00 | 0.00 | 0.00 | 51 | 1042.6 |
| 20260507142531 | 29 | 202 | 4.8 | 14.5 | 0.00 | 0.00 | 0.00 | 49 | 1042.8 |
| 20260507142033 | 29 | 140 | 6.4 | 14.5 | 0.00 | 0.00 | 0.00 | 53 | 1042.8 |
| 20260507141527 | 28 | 176 | 4.8 | 12.9 | 0.00 | 0.00 | 0.00 | 56 | 1042.9 |
| 20260507141026 | 28 | 182 | 1.6 | 9.7 | 0.00 | 0.00 | 0.00 | 60 | 1042.9 |
| 20260507140524 | 28 | 201 | 3.2 | 14.5 | 0.00 | 0.00 | 0.00 | 63 | 1042.9 |
| 20260507140036 | 28 | 217 | 6.4 | 14.5 | 0.00 | 0.00 | 0.00 | 63 | 1042.9 |
| 20260507135521 | 28 | 177 | 6.4 | 14.5 | 0.00 | 0.00 | 0.00 | 68 | 1042.9 |
| 20260507135023 | 27 | 167 | 3.2 | 14.5 | 0.00 | 0.00 | 0.00 | 67 | 1042.9 |
| 20260507134519 | 27 | 277 | 4.8 | 14.5 | 0.00 | 0.00 | 0.00 | 68 | 1043.0 |
| 20260507134017 | 27 | 172 | 3.2 | 9.7 | 0.00 | 0.00 | 0.00 | 70 | 1042.9 |
| 20260507133516 | 27 | 200 | 1.6 | 11.3 | 0.00 | 0.00 | 0.00 | 74 | 1043.0 |
| 20260507133014 | 26 | 191 | 4.8 | 12.9 | 0.00 | 0.00 | 0.00 | 72 | 1043.0 |
| 20260507132512 | 26 | 253 | 1.6 | 8.0 | 0.00 | 0.00 | 0.00 | 76 | 1042.9 |
| 20260507132011 | 26 | 214 | 3.2 | 8.0 | 0.00 | 0.00 | 0.00 | 77 | 1042.9 |
| 20260507131512 | 26 | 216 | 1.6 | 9.7 | 0.00 | 0.00 | 0.00 | 79 | 1042.9 |
| 20260507131009 | 25 | 176 | 1.6 | 9.7 | 0.00 | 0.00 | 0.00 | 79 | 1042.8 |
| 20260507130507 | 25 | 204 | 1.6 | 11.3 | 0.00 | 0.00 | 0.00 | 80 | 1042.9 |
| 20260507130006 | 25 | 235 | 3.2 | 9.7 | 0.00 | 0.00 | 0.00 | 82 | 1042.9 |
| 20260507125507 | 25 | 153 | 0.0 | 6.4 | 0.00 | 0.00 | 0.00 | 84 | 1042.9 |
| 20260507125003 | 24 | 234 | 0.0 | 4.8 | 0.00 | 0.00 | 0.00 | 85 | 1042.9 |
| 20260507124503 | 23 | 120 | 0.0 | 4.8 | 0.00 | 0.00 | 0.00 | 87 | 1042.8 |
| 20260507124100 | 23 | 61 | 0.0 | 4.8 | 0.00 | 0.00 | 0.00 | 87 | 1042.8 |
| 20260507123559 | 23 | 214 | 0.0 | 6.4 | 0.00 | 0.00 | 0.00 | 90 | 1042.8 |
| 20260507123104 | 22 | 153 | 1.6 | 6.4 | 0.00 | 0.00 | 0.00 | 94 | 1042.8 |
| 20260507122555 | 22 | 190 | 0.0 | 6.4 | 0.00 | 0.00 | 0.00 | 97 | 1042.8 |
| 20260507122057 | 22 | 130 | 0.0 | 6.4 | 0.00 | 0.00 | 0.00 | 100 | 1042.7 |
| 20260507121557 | 21 | 171 | 1.6 | 6.4 | 0.00 | 0.00 | 0.00 | 100 | 1042.6 |
| 20260507121053 | 21 | 161 | 0.0 | 4.8 | 0.00 | 0.00 | 0.00 | 100 | 1042.7 |
| 20260507120552 | 21 | 194 | 0.0 | 4.8 | 0.00 | 0.00 | 0.00 | 100 | 1042.6 |
| 20260507120052 | 21 | 236 | 1.6 | 4.8 | 0.00 | 0.00 | 0.00 | 100 | 1042.6 |
| 20260507115551 | 20 | 217 | 0.0 | 3.2 | 0.00 | 0.00 | 0.00 | 100 | 1042.7 |
| 20260507115049 | 20 | 141 | 0.0 | 3.2 | 0.00 | 0.00 | 0.00 | 100 | 1042.6 |
| 20260507114549 | 20 | 230 | 0.0 | 3.2 | 0.00 | 0.00 | 0.00 | 100 | 1042.5 |
| 20260507114051 | 20 | 179 | 0.0 | 0.0 | 0.00 | 0.00 | 0.00 | 100 | 1042.5 |
| 20260507113547 | 20 | 176 | 0.0 | 0.0 | 0.00 | 0.00 | 0.00 | 100 | 1042.5 |
| 20260507113106 | 20 | 203 | 0.0 | 0.0 | 0.00 | 0.00 | 0.00 | 100 | 1042.5 |
| 20260507112548 | 20 | 203 | 0.0 | 0.0 | 0.00 | 0.00 | 0.00 | 100 | 1042.4 |
| 20260507112045 | 20 | 203 | 0.0 | 0.0 | 0.00 | 0.00 | 0.00 | 100 | 1042.4 |
| 20260507111545 | 20 | 143 | 0.0 | 0.0 | 0.00 | 0.00 | 0.00 | 100 | 1042.4 |
| 20260507111044 | 20 | 143 | 0.0 | 0.0 | 0.00 | 0.00 | 0.00 | 100 | 1042.4 |
| 20260507110544 | 20 | 143 | 0.0 | 0.0 | 0.00 | 0.00 | 0.00 | 100 | 1042.3 |
| 20260507110044 | 20 | 194 | 0.0 | 0.0 | 0.00 | 0.00 | 0.00 | 100 | 1042.3 |
| 20260507105543 | 20 | 194 | 0.0 | 0.0 | 0.00 | 0.00 | 0.00 | 100 | 1042.3 |
| 20260507105043 | 20 | 194 | 0.0 | 0.0 | 0.00 | 0.00 | 0.00 | 100 | 1042.3 |
| 20260507104644 | 20 | 188 | 0.0 | 0.0 | 0.00 | 0.00 | 0.00 | 100 | 1042.3 |
| 20260507104043 | 20 | 188 | 0.0 | 0.0 | 0.00 | 0.00 | 0.00 | 100 | 1042.3 |
| 20260507103543 | 20 | 188 | 0.0 | 0.0 | 0.00 | 0.00 | 0.00 | 100 | 1042.3 |
| 20260507103042 | 20 | 188 | 0.0 | 0.0 | 0.00 | 0.00 | 0.00 | 100 | 1042.4 |
| 20260507102542 | 20 | 188 | 0.0 | 0.0 | 0.00 | 0.00 | 0.00 | 100 | 1042.3 |
| 20260507102042 | 20 | 188 | 0.0 | 0.0 | 0.00 | 0.00 | 0.00 | 100 | 1042.4 |
| 20260507101542 | 20 | 188 | 0.0 | 0.0 | 0.00 | 0.00 | 0.00 | 100 | 1042.2 |
| 20260507101041 | 20 | 190 | 0.0 | 0.0 | 0.00 | 0.00 | 0.00 | 100 | 1042.2 |
| 20260507100541 | 20 | 190 | 0.0 | 0.0 | 0.00 | 0.00 | 0.00 | 100 | 1042.2 |
| 20260507100052 | 20 | 190 | 0.0 | 0.0 | 0.00 | 0.00 | 0.00 | 100 | 1042.1 |
| 20260507095545 | 20 | 190 | 0.0 | 0.0 | 0.00 | 0.00 | 0.00 | 100 | 1041.9 |
| 20260507095043 | 20 | 190 | 0.0 | 0.0 | 0.00 | 0.00 | 0.00 | 100 | 1041.8 |
| 20260507094542 | 20 | 190 | 0.0 | 0.0 | 0.00 | 0.00 | 0.00 | 100 | 1041.9 |
| 20260507094043 | 20 | 190 | 0.0 | 0.0 | 0.00 | 0.00 | 0.00 | 100 | 1041.8 |
| 20260507093542 | 20 | 190 | 0.0 | 0.0 | 0.00 | 0.00 | 0.00 | 100 | 1041.9 |
| 20260507093042 | 20 | 190 | 0.0 | 0.0 | 0.00 | 0.00 | 0.00 | 100 | 1041.9 |
| 20260507092540 | 20 | 190 | 0.0 | 0.0 | 0.00 | 0.00 | 0.00 | 100 | 1041.9 |
| 20260507092041 | 20 | 190 | 0.0 | 0.0 | 0.00 | 0.00 | 0.00 | 100 | 1041.8 |
| 20260507091543 | 20 | 190 | 0.0 | 0.0 | 0.00 | 0.00 | 0.00 | 100 | 1041.8 |
| 20260507091041 | 20 | 190 | 0.0 | 0.0 | 0.00 | 0.00 | 0.00 | 100 | 1041.7 |
| 20260507090540 | 20 | 190 | 0.0 | 0.0 | 0.00 | 0.00 | 0.00 | 100 | 1041.6 |
| 20260507090041 | 20 | 190 | 0.0 | 0.0 | 0.00 | 0.00 | 0.00 | 100 | 1041.6 |
| 20260507085540 | 20 | 190 | 0.0 | 0.0 | 0.00 | 0.00 | 0.00 | 100 | 1041.6 |
| 20260507085039 | 20 | 190 | 0.0 | 0.0 | 0.00 | 0.00 | 0.00 | 100 | 1041.6 |
| 20260507084551 | 20 | 190 | 0.0 | 0.0 | 0.00 | 0.00 | 0.00 | 100 | 1041.6 |
| 20260507084038 | 20 | 190 | 0.0 | 0.0 | 0.00 | 0.00 | 0.00 | 100 | 1041.5 |
| 20260507083537 | 20 | 190 | 0.0 | 0.0 | 0.00 | 0.00 | 0.00 | 100 | 1041.4 |
| 20260507083037 | 20 | 190 | 0.0 | 0.0 | 0.00 | 0.00 | 0.00 | 100 | 1041.3 |
| 20260507082537 | 20 | 190 | 0.0 | 0.0 | 0.00 | 0.00 | 0.00 | 100 | 1041.4 |
| 20260507082035 | 20 | 190 | 0.0 | 0.0 | 0.00 | 0.00 | 0.00 | 100 | 1041.6 |
| 20260507081535 | 20 | 190 | 0.0 | 0.0 | 0.00 | 0.00 | 0.00 | 100 | 1041.7 |
| 20260507081035 | 20 | 190 | 0.0 | 0.0 | 0.00 | 0.00 | 0.00 | 100 | 1041.7 |
| 20260507080536 | 20 | 190 | 0.0 | 0.0 | 0.00 | 0.00 | 0.00 | 100 | 1041.8 |
| 20260507080034 | 20 | 190 | 0.0 | 0.0 | 0.00 | 0.00 | 0.00 | 100 | 1041.9 |
| 20260507075538 | 20 | 190 | 0.0 | 0.0 | 0.00 | 0.00 | 0.00 | 100 | 1041.9 |
| 20260507075034 | 20 | 190 | 0.0 | 0.0 | 0.00 | 0.00 | 0.00 | 100 | 1042.0 |
| 20260507074535 | 20 | 190 | 0.0 | 0.0 | 0.00 | 0.00 | 0.00 | 100 | 1042.1 |
| 20260507074035 | 20 | 190 | 0.0 | 0.0 | 0.00 | 0.00 | 0.00 | 100 | 1042.1 |
| 20260507073533 | 20 | 190 | 0.0 | 0.0 | 0.00 | 0.00 | 0.00 | 100 | 1042.0 |
| 20260507073033 | 20 | 190 | 0.0 | 0.0 | 0.00 | 0.00 | 0.00 | 100 | 1041.9 |
| 20260507072533 | 20 | 190 | 0.0 | 0.0 | 0.00 | 0.00 | 0.00 | 100 | 1041.9 |
| 20260507072033 | 20 | 190 | 0.0 | 0.0 | 0.00 | 0.00 | 0.00 | 100 | 1041.8 |
| 20260507071537 | 20 | 190 | 0.0 | 0.0 | 0.00 | 0.00 | 0.00 | 100 | 1041.7 |
| 20260507071033 | 20 | 190 | 0.0 | 0.0 | 0.00 | 0.00 | 0.00 | 100 | 1041.7 |
| 20260507070532 | 20 | 190 | 0.0 | 0.0 | 0.00 | 0.00 | 0.00 | 100 | 1041.7 |
| 20260507070032 | 20 | 190 | 0.0 | 0.0 | 0.00 | 0.00 | 0.00 | 100 | 1041.8 |
| 20260507065530 | 20 | 190 | 0.0 | 0.0 | 0.00 | 0.00 | 0.00 | 100 | 1041.9 |
| 20260507065029 | 20 | 190 | 0.0 | 0.0 | 0.00 | 0.00 | 0.00 | 100 | 1042.0 |
| 20260507064530 | 20 | 190 | 0.0 | 0.0 | 0.00 | 0.00 | 0.00 | 100 | 1042.2 |
| 20260507064030 | 20 | 190 | 0.0 | 0.0 | 0.00 | 0.00 | 0.00 | 100 | 1042.3 |
| 20260507063528 | 21 | 190 | 0.0 | 0.0 | 0.00 | 0.00 | 0.00 | 100 | 1042.3 |
| 20260507063028 | 21 | 190 | 0.0 | 0.0 | 0.00 | 0.00 | 0.00 | 100 | 1042.4 |
| 20260507062527 | 21 | 219 | 0.0 | 0.0 | 0.00 | 0.00 | 0.00 | 100 | 1042.4 |
| 20260507062025 | 21 | 225 | 0.0 | 0.0 | 0.00 | 0.00 | 0.00 | 100 | 1042.7 |
| 20260507061533 | 21 | 225 | 0.0 | 0.0 | 0.00 | 0.00 | 0.00 | 100 | 1042.8 |
| 20260507061023 | 21 | 225 | 0.0 | 0.0 | 0.00 | 0.00 | 0.00 | 100 | 1042.9 |
| 20260507060523 | 20 | 225 | 0.0 | 0.0 | 0.00 | 0.00 | 0.00 | 100 | 1043.0 |
| 20260507060036 | 20 | 225 | 0.0 | 0.0 | 0.00 | 0.00 | 0.00 | 100 | 1043.1 |
| 20260507055522 | 20 | 225 | 0.0 | 0.0 | 0.00 | 0.00 | 0.00 | 100 | 1043.2 |
| 20260507055020 | 21 | 225 | 0.0 | 0.0 | 0.00 | 0.00 | 0.00 | 100 | 1043.3 |
| 20260507054533 | 21 | 225 | 0.0 | 0.0 | 0.00 | 0.00 | 0.00 | 100 | 1043.3 |
| 20260507054022 | 21 | 225 | 0.0 | 0.0 | 0.00 | 0.00 | 0.00 | 100 | 1043.3 |
| 20260507053519 | 21 | 225 | 0.0 | 0.0 | 0.00 | 0.00 | 0.00 | 100 | 1043.4 |
| 20260507053020 | 21 | 225 | 0.0 | 0.0 | 0.00 | 0.00 | 0.00 | 100 | 1043.3 |
| 20260507052524 | 21 | 225 | 0.0 | 0.0 | 0.00 | 0.00 | 0.00 | 100 | 1043.5 |
| 20260507052019 | 21 | 225 | 0.0 | 0.0 | 0.00 | 0.00 | 0.00 | 100 | 1043.5 |
| 20260507051518 | 21 | 225 | 0.0 | 0.0 | 0.00 | 0.00 | 0.00 | 100 | 1043.5 |
| 20260507051023 | 21 | 225 | 0.0 | 0.0 | 0.00 | 0.00 | 0.00 | 100 | 1043.3 |
| 20260507050519 | 21 | 225 | 0.0 | 0.0 | 0.00 | 0.00 | 0.00 | 100 | 1043.5 |
| 20260507050039 | 21 | 225 | 0.0 | 0.0 | 0.00 | 0.00 | 0.00 | 100 | 1043.5 |
| 20260507045517 | 21 | 173 | 0.0 | 0.0 | 0.00 | 0.00 | 0.00 | 100 | 1043.3 |
| 20260507045017 | 21 | 173 | 0.0 | 0.0 | 0.00 | 0.00 | 0.00 | 100 | 1043.4 |
| 20260507044522 | 21 | 286 | 0.0 | 0.0 | 0.00 | 0.00 | 0.00 | 100 | 1043.5 |
| 20260507044015 | 21 | 286 | 0.0 | 0.0 | 0.00 | 0.00 | 0.00 | 100 | 1043.4 |
| 20260507043513 | 22 | 286 | 0.0 | 0.0 | 0.00 | 0.00 | 0.00 | 99 | 1043.4 |
| 20260507043012 | 22 | 286 | 0.0 | 0.0 | 0.00 | 0.00 | 0.00 | 99 | 1043.6 |
| 20260507042511 | 22 | 254 | 0.0 | 0.0 | 0.00 | 0.00 | 0.00 | 99 | 1043.6 |
| 20260507042010 | 22 | 142 | 0.0 | 0.0 | 0.00 | 0.00 | 0.00 | 99 | 1043.5 |
| 20260507041508 | 22 | 134 | 0.0 | 0.0 | 0.00 | 0.00 | 0.00 | 98 | 1043.9 |
| 20260507041006 | 22 | 196 | 0.0 | 0.0 | 0.00 | 0.00 | 0.00 | 98 | 1043.9 |
| 20260507040505 | 22 | 184 | 0.0 | 1.6 | 0.00 | 0.00 | 0.00 | 98 | 1043.8 |
| 20260507040006 | 22 | 180 | 0.0 | 6.4 | 0.00 | 0.00 | 0.00 | 97 | 1044.0 |
| 20260507035503 | 22 | 166 | 3.2 | 6.4 | 0.00 | 0.00 | 0.00 | 97 | 1044.0 |
| 20260507035003 | 22 | 126 | 0.0 | 0.0 | 0.00 | 0.00 | 0.00 | 96 | 1043.8 |
| 20260507034505 | 22 | 209 | 0.0 | 0.0 | 0.00 | 0.00 | 0.00 | 95 | 1043.5 |
| 20260507034005 | 22 | 209 | 0.0 | 0.0 | 0.00 | 0.00 | 0.00 | 94 | 1043.5 |
| 20260507033502 | 22 | 209 | 0.0 | 0.0 | 0.00 | 0.00 | 0.00 | 95 | 1043.2 |
| 20260507033003 | 22 | 209 | 0.0 | 0.0 | 0.00 | 0.00 | 0.00 | 95 | 1043.3 |
| 20260507032503 | 22 | 209 | 0.0 | 0.0 | 0.00 | 0.00 | 0.00 | 94 | 1043.2 |
| 20260507032002 | 22 | 209 | 0.0 | 0.0 | 0.00 | 0.00 | 0.00 | 94 | 1043.3 |
| 20260507031505 | 22 | 286 | 0.0 | 3.2 | 0.00 | 0.00 | 0.00 | 93 | 1043.3 |
| 20260507031003 | 22 | 286 | 0.0 | 3.2 | 0.00 | 0.00 | 0.00 | 94 | 1043.2 |
| 20260507030503 | 22 | 267 | 0.0 | 1.6 | 0.00 | 0.00 | 0.00 | 93 | 1043.3 |
| 20260507030005 | 22 | 267 | 0.0 | 3.2 | 0.00 | 0.00 | 0.00 | 92 | 1043.2 |
| 20260507025501 | 23 | 244 | 0.0 | 3.2 | 0.00 | 0.00 | 0.00 | 91 | 1043.1 |
| 20260507025005 | 23 | 276 | 0.0 | 0.0 | 0.00 | 0.00 | 0.00 | 91 | 1043.2 |
| 20260507024502 | 23 | 298 | 0.0 | 0.0 | 0.00 | 0.00 | 0.00 | 91 | 1043.3 |
| 20260507024002 | 23 | 305 | 0.0 | 0.0 | 0.00 | 0.00 | 0.00 | 91 | 1043.5 |
| 20260507023500 | 23 | 294 | 0.0 | 0.0 | 0.00 | 0.00 | 0.00 | 90 | 1043.5 |
| 20260507023002 | 23 | 294 | 0.0 | 1.6 | 0.00 | 0.00 | 0.00 | 89 | 1043.5 |
| 20260507022503 | 23 | 290 | 0.0 | 3.2 | 0.00 | 0.00 | 0.00 | 88 | 1043.4 |
| 20260507022101 | 23 | 273 | 0.0 | 3.2 | 0.00 | 0.00 | 0.00 | 87 | 1043.4 |
| 20260507022002 | 23 | 273 | 0.0 | 3.2 | 0.00 | 0.00 | 0.00 | 87 | 1043.4 |
| 20260507021616 | 23 | 295 | 0.0 | 3.2 | 0.00 | 0.00 | 0.00 | 86 | 1043.3 |
| 20260507021100 | 23 | 292 | 0.0 | 1.6 | 0.00 | 0.00 | 0.00 | 86 | 1043.2 |
| 20260507020600 | 23 | 309 | 0.0 | 1.6 | 0.00 | 0.00 | 0.00 | 85 | 1043.1 |
| 20260507020100 | 24 | 304 | 0.0 | 1.6 | 0.00 | 0.00 | 0.00 | 84 | 1043.2 |
| 20260507015600 | 24 | 273 | 0.0 | 1.6 | 0.00 | 0.00 | 0.00 | 84 | 1043.2 |
| 20260507015100 | 24 | 274 | 0.0 | 3.2 | 0.00 | 0.00 | 0.00 | 83 | 1043.2 |
| 20260507014601 | 24 | 299 | 0.0 | 4.8 | 0.00 | 0.00 | 0.00 | 82 | 1043.3 |
| 20260507014101 | 24 | 273 | 1.6 | 11.3 | 0.00 | 0.00 | 0.00 | 81 | 1043.3 |
| 20260507013600 | 25 | 277 | 0.0 | 11.3 | 0.00 | 0.00 | 0.00 | 80 | 1043.4 |
| 20260507013059 | 25 | 271 | 1.6 | 8.0 | 0.00 | 0.00 | 0.00 | 80 | 1043.4 |
| 20260507012603 | 25 | 273 | 4.8 | 8.0 | 0.00 | 0.00 | 0.00 | 79 | 1043.3 |
| 20260507012100 | 25 | 286 | 0.0 | 6.4 | 0.00 | 0.00 | 0.00 | 79 | 1043.2 |
| 20260507011603 | 25 | 278 | 3.2 | 6.4 | 0.00 | 0.00 | 0.00 | 78 | 1043.1 |
| 20260507011058 | 25 | 265 | 1.6 | 4.8 | 0.00 | 0.00 | 0.00 | 77 | 1043.1 |
| 20260507010558 | 25 | 286 | 0.0 | 4.8 | 0.00 | 0.00 | 0.00 | 76 | 1043.0 |
| 20260507005558 | 25 | 238 | 0.0 | 3.2 | 0.00 | 0.00 | 0.00 | 75 | 1042.8 |
| 20260507005057 | 25 | 282 | 0.0 | 9.7 | 0.00 | 0.00 | 0.00 | 74 | 1042.9 |
| 20260507004558 | 26 | 318 | 3.2 | 11.3 | 0.00 | 0.00 | 0.00 | 73 | 1042.8 |
| 20260507004057 | 26 | 297 | 1.6 | 11.3 | 0.00 | 0.00 | 0.00 | 73 | 1042.9 |
| 20260507003556 | 26 | 304 | 0.0 | 8.0 | 0.00 | 0.00 | 0.00 | 72 | 1042.8 |
| 20260507003056 | 26 | 257 | 4.8 | 8.0 | 0.00 | 0.00 | 0.00 | 72 | 1042.8 |
| 20260507002556 | 26 | 250 | 3.2 | 12.9 | 0.00 | 0.00 | 0.00 | 72 | 1042.7 |
| 20260507002056 | 26 | 290 | 3.2 | 12.9 | 0.00 | 0.00 | 0.00 | 71 | 1042.7 |
| 20260507001604 | 26 | 284 | 6.4 | 12.9 | 0.00 | 0.00 | 0.00 | 72 | 1042.6 |
| 20260507001055 | 26 | 296 | 4.8 | 12.9 | 0.00 | 0.00 | 0.00 | 73 | 1042.5 |
| 20260507000556 | 26 | 261 | 6.4 | 12.9 | 0.00 | 0.00 | 0.00 | 73 | 1042.4 |
| 20260507000058 | 26 | 299 | 3.2 | 12.9 | 0.00 | 0.00 | 0.00 | 73 | 1042.4 |
| 20260506235557 | 27 | 295 | 3.2 | 12.9 | 0.00 | 0.00 | 0.00 | 73 | 1042.4 |
| 20260506235056 | 27 | 257 | 6.4 | 16.1 | 0.00 | 0.00 | 0.00 | 72 | 1042.4 |
| 20260506234621 | 27 | 245 | 8.0 | 17.7 | 0.00 | 0.00 | 0.00 | 71 | 1042.4 |
| 20260506234055 | 27 | 283 | 4.8 | 16.1 | 0.00 | 0.00 | 0.00 | 70 | 1042.4 |
| 20260506233554 | 27 | 231 | 4.8 | 14.5 | 0.00 | 0.00 | 0.00 | 69 | 1042.3 |
| 20260506233055 | 27 | 240 | 6.4 | 12.9 | 0.00 | 0.00 | 0.00 | 69 | 1042.4 |
| 20260506232558 | 28 | 319 | 3.2 | 17.7 | 0.00 | 0.00 | 0.00 | 68 | 1042.3 |
| 20260506232054 | 28 | 264 | 8.0 | 17.7 | 0.00 | 0.00 | 0.00 | 67 | 1042.3 |
| 20260506231555 | 28 | 274 | 4.8 | 12.9 | 0.00 | 0.00 | 0.00 | 67 | 1042.3 |
| 20260506231059 | 28 | 256 | 3.2 | 16.1 | 0.00 | 0.00 | 0.00 | 67 | 1042.4 |
| 20260506230558 | 28 | 247 | 8.0 | 16.1 | 0.00 | 0.00 | 0.00 | 66 | 1042.4 |
| 20260506230057 | 28 | 292 | 9.7 | 19.3 | 0.00 | 0.00 | 0.00 | 65 | 1042.4 |
| 20260506225557 | 28 | 257 | 9.7 | 19.3 | 0.00 | 0.00 | 0.00 | 64 | 1042.3 |
| 20260506225054 | 29 | 292 | 6.4 | 16.1 | 0.00 | 0.00 | 0.00 | 65 | 1042.4 |
| 20260506224553 | 29 | 271 | 9.7 | 17.7 | 0.00 | 0.00 | 0.00 | 64 | 1042.3 |
| 20260506224052 | 29 | 290 | 8.0 | 17.7 | 0.00 | 0.00 | 0.00 | 64 | 1042.3 |
| 20260506223555 | 30 | 302 | 6.4 | 17.7 | 0.00 | 0.00 | 0.00 | 61 | 1042.2 |
| 20260506223058 | 29 | 246 | 4.8 | 16.1 | 0.00 | 0.00 | 0.00 | 61 | 1042.2 |
| 20260506222551 | 30 | 308 | 8.0 | 17.7 | 0.00 | 0.00 | 0.00 | 60 | 1042.2 |
| 20260506222051 | 30 | 281 | 11.3 | 17.7 | 0.00 | 0.00 | 0.00 | 59 | 1042.2 |
| 20260506221554 | 30 | 271 | 9.7 | 17.7 | 0.00 | 0.00 | 0.00 | 59 | 1042.2 |
| 20260506221052 | 30 | 292 | 8.0 | 20.9 | 0.00 | 0.00 | 0.00 | 55 | 1042.2 |
| 20260506220551 | 30 | 250 | 8.0 | 20.9 | 0.00 | 0.00 | 0.00 | 59 | 1042.2 |
| 20260506220051 | 30 | 266 | 11.3 | 20.9 | 0.00 | 0.00 | 0.00 | 58 | 1042.2 |
| 20260506215550 | 30 | 262 | 6.4 | 25.7 | 0.00 | 0.00 | 0.00 | 56 | 1042.2 |
| 20260506215051 | 31 | 210 | 12.9 | 25.7 | 0.00 | 0.00 | 0.00 | 55 | 1042.4 |
| 20260506214550 | 31 | 302 | 8.0 | 20.9 | 0.00 | 0.00 | 0.00 | 54 | 1042.2 |
| 20260506214050 | 31 | 253 | 8.0 | 20.9 | 0.00 | 0.00 | 0.00 | 52 | 1042.3 |
| 20260506213549 | 31 | 288 | 11.3 | 20.9 | 0.00 | 0.00 | 0.00 | 50 | 1042.4 |
| 20260506213049 | 31 | 293 | 11.3 | 24.1 | 0.00 | 0.00 | 0.00 | 51 | 1042.3 |
| 20260506212549 | 31 | 227 | 11.3 | 24.1 | 0.00 | 0.00 | 0.00 | 46 | 1042.4 |
| 20260506212049 | 31 | 219 | 9.7 | 20.9 | 0.00 | 0.00 | 0.00 | 49 | 1042.3 |
| 20260506211549 | 32 | 294 | 8.0 | 27.4 | 0.00 | 0.00 | 0.00 | 51 | 1042.2 |
| 20260506211048 | 32 | 298 | 11.3 | 27.4 | 0.00 | 0.00 | 0.00 | 47 | 1042.2 |
| 20260506210548 | 32 | 301 | 9.7 | 22.5 | 0.00 | 0.00 | 0.00 | 46 | 1042.1 |
| 20260506210048 | 33 | 264 | 9.7 | 24.1 | 0.00 | 0.00 | 0.00 | 44 | 1042.1 |
| 20260506205547 | 33 | 257 | 8.0 | 17.7 | 0.00 | 0.00 | 0.00 | 46 | 1042.2 |
| 20260506205047 | 32 | 56 | 6.4 | 17.7 | 0.00 | 0.00 | 0.00 | 47 | 1042.1 |
| 20260506204555 | 33 | 325 | 4.8 | 16.1 | 0.00 | 0.00 | 0.00 | 46 | 1042.1 |
| 20260506204046 | 34 | 234 | 6.4 | 16.1 | 0.00 | 0.00 | 0.00 | 44 | 1042.0 |
| 20260506203546 | 33 | 251 | 4.8 | 14.5 | 0.00 | 0.00 | 0.00 | 43 | 1042.0 |
| 20260506203046 | 33 | 274 | 4.8 | 14.5 | 0.00 | 0.00 | 0.00 | 40 | 1041.9 |
| 20260506202548 | 32 | 310 | 1.6 | 8.0 | 0.00 | 0.00 | 0.00 | 41 | 1042.0 |
| 20260506202045 | 32 | 288 | 3.2 | 9.7 | 0.00 | 0.00 | 0.00 | 43 | 1042.0 |
| 20260506201545 | 33 | 298 | 4.8 | 9.7 | 0.00 | 0.00 | 0.00 | 41 | 1042.1 |
| 20260506201046 | 33 | 128 | 0.0 | 12.9 | 0.00 | 0.00 | 0.00 | 43 | 1042.1 |
| 20260506200547 | 33 | 284 | 4.8 | 12.9 | 0.00 | 0.00 | 0.00 | 39 | 1042.1 |
| 20260506195541 | 33 | 135 | 3.2 | 8.0 | 0.00 | 0.00 | 0.00 | 40 | 1042.2 |
| 20260506195042 | 33 | 103 | 0.0 | 11.3 | 0.00 | 0.00 | 0.00 | 43 | 1042.3 |
| 20260506194548 | 33 | 263 | 4.8 | 11.3 | 0.00 | 0.00 | 0.00 | 41 | 1042.2 |
| 20260506194040 | 32 | 95 | 1.6 | 9.7 | 0.00 | 0.00 | 0.00 | 44 | 1042.3 |
| 20260506193543 | 32 | 159 | 1.6 | 9.7 | 0.00 | 0.00 | 0.00 | 44 | 1042.3 |
| 20260506193038 | 32 | 263 | 1.6 | 6.4 | 0.00 | 0.00 | 0.00 | 43 | 1042.5 |
| 20260506192538 | 32 | 57 | 1.6 | 6.4 | 0.00 | 0.00 | 0.00 | 44 | 1042.4 |